Location: Mouss�
(47.9236°N, 1.2701°W)
Time: 02:59:43
(UTC+00:00)

Cosmos 1689 Rocket - Pass Details

Date: 03 March 2021
Orbit: 350 x 361 km, 97.5° (Epoch: 12 April)

Event Time Altitude Azimuth Distance (km) Brightness Sun altitude
Rises 18:52:48 0° 15° (NNE) 2,210 5.8 -10.8°
Reaches altitude 10° 18:54:45 10° 17° (NNE) 1,361 4.7 -11.2°
Maximum altitude 18:57:38 70° 102° (ESE) 394 1.9 -11.6°
Drops below altitude 10° 19:00:30 10° 187° (S) 1,356 4.9 -12.1°
Sets 19:02:26 0° 190° (S) 2,201 6.0 -12.5°
